Location: Bemmer
(51.5498°N, 5.6249°E)
Time: 17:52:43
(UTC+00:00)

Meteor 1-20 Rocket - Pass Details

Date: 03 March 2021
Orbit: 820 x 891 km, 81.2° (Epoch: 13 April)

Event Time Altitude Azimuth Distance (km) Brightness Sun altitude
Rises 18:08:24 0° 187° (S) 3,340 7.4 -8.1°
Reaches altitude 10° 18:10:47 10° 186° (S) 2,412 6.7 -8.4°
Maximum altitude 18:16:14 81° 100° (E) 841 4.1 -9.3°
Drops below altitude 10° 18:21:46 10° 14° (NNE) 2,450 6.5 -10.1°
Sets 18:24:12 0° 14° (NNE) 3,396 7.2 -10.5°
